Wind_Speed
24 23 23 21 19 19 18 18 18 20 19 18 18 16 15 16 22 23 22 21 19 17 17 16 14 14 15 12 8 6 4 1 3 6 2 10 14 20 15 13 11 9 11 11 15
26 25 26 25 24 23 21 20 20 19 21 21 21 19 18 18 20 25 26 23 21 19 18 17 17 15 15 14 11 6 3 3 2 2 2 6 7 20 23 16 12 10 9 11 12
26 27 26 27 27 26 25 24 23 23 22 22 23 23 21 20 20 20 25 27 25 23 20 19 17 16 14 14 15 4 7 3 3 2 3 6 8 11 21 20 16 12 10 10 10
24 25 26 26 28 28 28 28 27 25 25 25 23 25 24 23 20 21 22 24 27 26 24 20 19 17 15 14 13 9 9 7 4 1 3 3 8 9 17 20 14 12 11 11 11
22 23 24 25 27 29 29 29 30 29 27 27 27 26 26 26 24 24 22 22 24 27 25 23 21 20 17 16 16 12 10 9 6 5 3 2 0 9 22 17 13 11 10 9 12
22 22 22 24 26 27 29 29 30 31 29 29 29 29 28 27 21 27 24 23 25 26 28 26 25 24 20 18 16 16 12 11 8 8 3 4 3 6 10 24 15 11 10 11 12
22 21 21 22 24 25 28 31 30 31 33 32 32 31 30 31 24 26 26 26 26 27 27 27 30 28 23 18 16 16 12 15 12 13 6 2 3 2 14 9 11 11 12 13 13
20 18 19 20 23 25 26 30 31 31 32 34 34 34 33 30 28 27 29 29 28 28 28 29 29 30 30 25 19 21 16 13 12 15 9 9 13 8 10 11 18 16 14 15 14
18 17 17 18 19 21 24 27 29 32 32 33 35 35 37 30 32 32 30 30 31 29 30 30 28 27 28 27 25 23 17 15 14 15 15 15 11 15 12 9 13 21 18 16 15
17 17 16 15 16 20 22 24 27 31 32 34 35 35 38 33 34 34 33 31 32 33 31 31 29 29 27 30 26 21 13 23 19 19 22 18 17 7 6 8 12 19 22 18 16
17 17 18 18 16 17 20 24 26 28 32 34 34 37 38 34 36 36 36 34 34 34 33 30 34 34 28 20 22 10 7 28 24 18 20 26 20 17 11 11 10 17 23 21 18
16 15 16 17 16 14 15 19 24 27 29 34 37 38 43 41 38 37 37 37 37 35 34 37 36 33 31 29 26 30 23 30 31 25 21 26 19 26 20 12 11 19 28 25 22
16 17 18 18 17 16 14 15 17 21 25 30 35 37 38 41 39 39 39 37 35 34 36 37 32 31 34 35 33 35 25 19 25 26 20 23 22 28 16 12 13 14 31 28 24
19 19 22 21 19 20 20 16 17 20 21 25 33 35 41 40 41 41 40 38 39 37 37 36 35 35 35 38 38 31 28 28 10 18 27 13 17 18 18 20 14 20 29 25 28
19 21 24 24 21 20 18 13 12 12 8 21 25 36 41 42 36 39 38 43 44 40 40 36 39 40 40 37 39 37 25 17 17 18 18 16 16 24 25 25 18 21 16 36 30
19 21 24 24 23 21 15 12 12 10 13 8 24 23 28 40 39 36 38 44 45 43 43 39 40 43 44 39 38 40 31 29 23 27 20 19 18 26 30 21 21 25 19 36 31
20 24 24 23 22 17 10 13 9 8 19 21 8 14 22 30 34 35 42 45 48 46 46 42 44 44 38 42 40 41 41 29 30 30 23 16 16 35 39 41 23 27 13 19 17
22 24 24 22 16 11 9 9 9 9 15 11 14 9 14 19 25 27 32 42 46 44 36 43 42 39 48 47 40 46 39 30 30 26 22 17 28 43 40 11 6 8 14 14 15
22 22 21 16 11 8 10 7 9 10 10 14 15 14 16 20 24 25 29 35 37 40 27 26 38 30 34 37 31 33 44 31 21 17 18 26 36 44 43 28 23 20 20 24 17
20 18 14 11 10 11 10 14 3 6 11 14 15 22 20 27 28 28 20 30 38 34 39 23 34 29 31 34 42 36 39 39 33 28 23 31 36 43 38 32 27 28 29 26 19
17 17 13 9 8 10 16 5 13 12 9 14 17 31 24 28 31 38 39 39 36 43 39 36 41 41 35 48 50 45 42 41 31 21 21 24 34 46 45 32 33 33 30 30 28
14 13 11 9 4 8 7 16 17 12 8 15 18 33 27 19 29 38 29 38 43 44 41 29 31 45 39 39 45 49 37 42 36 36 29 35 35 43 34 31 27 32 33 30 30
12 8 8 9 6 7 4 14 9 7 9 14 27 37 29 32 25 26 43 22 47 41 51 32 28 28 23 34 41 55 49 29 33 27 32 30 40 29 30 32 22 29 35 33 31
13 6 9 5 6 6 12 11 4 4 4 16 16 27 30 25 27 6 30 21 34 38 47 30 25 21 20 27 38 50 50 44 42 31 27 39 36 31 24 21 26 26 36 36 34
13 8 4 4 4 6 6 4 6 2 2 3 3 19 21 7 12 8 15 21 26 35 50 43 27 9 24 16 23 41 46 37 50 41 32 30 36 27 29 26 23 25 33 38 38
12 11 7 5 5 4 2 1 1 2 2 2 5 6 13 25 12 18 16 24 36 43 55 53 38 23 16 18 28 23 32 36 45 45 26 23 35 42 41 37 34 28 31 36 38
8 11 13 12 7 3 4 2 1 2 3 3 7 9 13 24 25 24 19 21 31 47 51 54 49 42 35 31 35 38 39 46 46 47 33 29 39 46 38 42 42 39 33 39 42
Wind_Direction
281 274 269 264 261 260 255 251 248 244 235 228 233 226 218 202 203 198 196 195 190 188 185 176 179 183 172 171 157 141 100 150 39 335 126 179 196 167 169 169 167 161 162 166 153
282 276 272 267 263 257 253 249 245 242 240 233 226 227 222 212 202 204 203 200 196 197 194 188 181 184 181 174 160 112 151 184 118 24 14 199 213 189 166 173 169 164 167 178 171
285 280 274 269 263 260 257 248 244 243 235 235 230 226 221 219 209 203 208 208 204 204 203 199 188 187 189 177 167 138 155 159 127 119 213 219 184 195 183 170 169 177 171 173 174
288 281 277 271 265 260 256 254 248 241 239 231 230 228 225 217 215 214 209 208 209 208 208 206 198 195 194 180 179 201 190 186 175 229 160 102 198 196 199 183 171 176 172 180 176
293 286 280 274 268 263 257 252 251 247 238 236 229 226 227 224 206 213 209 207 207 208 207 210 205 199 201 191 185 237 184 189 180 178 120 68 126 158 160 146 175 170 175 190 176
298 291 282 273 269 262 258 253 248 247 243 235 235 230 225 225 213 217 209 204 205 206 207 208 209 206 192 202 196 198 197 187 184 214 194 52 34 176 180 165 171 171 179 192 193
304 293 282 271 267 265 260 255 249 244 243 241 235 234 229 225 219 219 214 208 203 205 207 207 212 211 210 203 199 189 199 201 187 205 199 168 190 202 185 192 187 183 186 190 198
307 299 287 275 269 261 257 253 250 245 240 239 238 231 232 229 221 219 213 212 211 204 205 209 213 212 213 204 197 177 197 201 231 211 224 214 194 202 164 184 192 201 199 200 192
305 296 290 284 274 267 261 253 247 244 239 235 236 233 228 225 222 218 218 212 212 209 205 208 212 212 213 215 211 214 215 229 239 234 237 225 219 224 173 179 194 198 203 209 195
309 309 304 293 279 271 261 255 250 246 241 233 231 233 229 224 223 221 218 215 215 209 208 205 208 216 211 211 212 218 196 225 248 264 244 240 247 296 191 216 209 210 207 207 201
311 310 310 307 293 276 263 256 250 243 244 238 233 233 229 229 227 222 217 216 214 215 208 203 205 208 212 206 202 185 213 236 235 212 262 249 250 250 229 223 226 214 205 207 205
311 309 316 314 301 284 267 256 249 242 237 237 233 231 227 228 222 223 223 217 217 211 209 207 209 206 207 200 201 171 219 218 242 211 213 240 231 239 206 213 235 224 210 207 209
311 311 324 321 310 304 293 272 251 243 237 239 232 231 234 227 224 221 222 223 219 216 209 211 207 209 207 201 195 195 202 231 250 237 246 220 230 242 208 225 230 251 210 202 211
311 316 323 325 314 309 302 281 266 252 250 244 239 230 232 231 226 225 217 218 218 215 210 209 204 211 213 206 196 197 180 237 195 258 268 248 255 254 244 244 244 236 236 212 204
308 316 322 322 317 312 309 294 282 271 286 246 246 230 226 225 229 226 217 217 216 211 211 205 204 208 212 212 200 187 187 248 195 227 211 228 226 262 245 240 244 238 251 207 197
310 318 324 322 318 320 315 311 308 289 196 253 245 255 232 228 227 226 216 216 218 209 209 205 205 207 214 212 203 194 187 232 224 214 212 226 244 250 254 218 225 243 259 210 189
315 320 325 321 318 315 321 323 304 203 226 220 258 275 245 228 219 220 222 212 212 210 210 206 205 206 214 215 206 193 187 207 227 223 225 215 254 247 253 233 220 233 236 184 223
318 326 325 323 320 315 317 289 255 233 190 232 225 225 246 198 194 206 231 210 208 207 211 210 207 207 215 212 209 196 188 208 224 224 229 189 240 251 247 184 311 258 248 261 200
326 329 330 329 320 291 291 254 283 160 234 256 241 210 202 193 201 202 223 214 203 203 195 227 211 229 217 208 192 211 198 192 213 224 218 230 234 245 252 264 265 268 244 239 232
328 336 330 4 329 300 292 271 229 306 286 250 230 212 223 184 187 204 211 202 189 186 200 189 210 217 218 203 198 200 209 190 190 203 213 240 246 256 259 260 260 258 248 238 239
334 345 3 345 321 317 321 10 333 322 259 236 210 186 194 176 184 189 203 198 198 196 191 194 189 215 206 217 204 200 194 202 190 209 215 228 234 237 244 247 250 251 246 243 245
345 342 346 341 308 246 312 315 305 322 309 231 216 190 195 204 192 207 210 195 199 191 202 189 197 209 217 214 215 203 204 198 193 189 198 230 233 243 247 256 248 236 239 242 240
358 348 335 325 273 278 19 290 290 302 335 200 175 195 195 195 234 197 203 186 186 208 183 189 184 211 192 224 218 216 203 200 199 203 210 256 246 244 240 233 239 229 229 237 240
4 43 334 338 306 337 313 290 287 303 79 185 198 195 184 187 214 218 208 209 197 205 185 184 161 199 187 215 220 215 203 197 199 205 227 246 245 250 234 234 228 229 226 232 240
18 16 3 310 334 273 261 293 292 268 203 200 74 213 193 169 206 163 215 196 199 188 192 196 168 266 204 138 208 217 214 211 202 188 234 240 245 240 235 230 225 229 230 230 236
37 40 48 39 7 341 273 288 293 328 341 242 180 259 216 209 215 197 210 207 200 192 193 196 203 211 223 207 186 215 212 222 211 196 264 244 241 239 244 238 233 230 229 230 233
54 52 61 52 56 74 354 313 312 339 4 319 230 194 196 214 216 227 209 220 201 195 198 209 213 211 212 213 205 194 204 217 215 202 228 215 232 235 234 236 236 237 235 228 231
Height
5850 5849 5848 5848 5848 5848 5849 5850 5851 5852 5853 5854 5856 5859 5861 5864 5867 5870 5873 5875 5877 5879 5881 5884 5886 5887 5890 5892 5894 5895 5896 5895 5892 5894 5895 5896 5897 5901 5905 5905 5906 5907 5908 5910 5910
5844 5844 5843 5843 5843 5843 5843 5845 5846 5847 5849 5850 5852 5854 5858 5861 5863 5866 5870 5873 5875 5878 5880 5883 5885 5887 5889 5891 5895 5895 5896 5896 5896 5897 5896 5897 5898 5900 5903 5906 5908 5909 5909 5911 5912
5837 5837 5837 5837 5838 5838 5839 5839 5841 5843 5844 5846 5848 5850 5853 5856 5860 5864 5865 5869 5873 5876 5878 5881 5884 5887 5889 5891 5894 5891 5896 5897 5899 5898 5898 5897 5900 5900 5903 5906 5907 5909 5911 5912 5913
5831 5830 5830 5831 5831 5832 5833 5834 5835 5837 5839 5841 5844 5846 5848 5851 5858 5859 5862 5866 5869 5873 5876 5880 5882 5886 5888 5890 5894 5895 5896 5897 5898 5898 5897 5899 5895 5902 5903 5903 5908 5909 5911 5912 5914
5825 5824 5824 5824 5824 5825 5826 5827 5829 5831 5833 5836 5838 5841 5844 5847 5851 5853 5858 5862 5866 5870 5873 5877 5880 5883 5886 5889 5892 5890 5895 5897 5898 5899 5900 5900 5899 5900 5902 5880 5908 5908 5912 5914 5914
5820 5819 5818 5818 5818 5818 5819 5820 5822 5825 5827 5829 5833 5836 5839 5842 5849 5849 5853 5858 5861 5865 5870 5874 5878 5881 5884 5887 5891 5894 5896 5897 5898 5900 5900 5901 5901 5901 5903 5903 5909 5909 5912 5914 5915
5815 5813 5812 5811 5811 5811 5812 5813 5815 5817 5820 5823 5825 5829 5834 5836 5842 5845 5849 5852 5856 5861 5865 5869 5873 5878 5882 5885 5889 5892 5895 5896 5897 5899 5901 5902 5903 5902 5903 5905 5908 5910 5913 5914 5915
5810 5808 5806 5805 5804 5804 5804 5806 5807 5810 5813 5816 5819 5823 5827 5832 5837 5840 5843 5848 5852 5856 5861 5865 5869 5874 5878 5882 5887 5889 5893 5895 5896 5898 5901 5901 5900 5901 5902 5905 5908 5911 5913 5914 5915
5805 5804 5801 5800 5799 5798 5798 5798 5800 5802 5805 5808 5813 5816 5819 5826 5830 5833 5838 5843 5847 5852 5856 5861 5865 5871 5876 5880 5884 5886 5891 5895 5897 5897 5898 5899 5893 5898 5902 5904 5908 5910 5912 5913 5915
5802 5800 5798 5795 5794 5793 5791 5792 5792 5795 5798 5800 5805 5810 5813 5818 5822 5828 5832 5836 5842 5846 5851 5857 5862 5866 5871 5874 5881 5887 5892 5890 5895 5897 5895 5899 5899 5901 5904 5905 5907 5908 5910 5913 5915
5797 5795 5794 5792 5789 5788 5787 5786 5788 5790 5790 5793 5797 5801 5804 5811 5816 5821 5825 5831 5836 5841 5846 5853 5855 5859 5868 5876 5880 5886 5894 5895 5893 5893 5896 5896 5900 5899 5900 5902 5904 5906 5907 5911 5913
5793 5791 5789 5787 5785 5784 5782 5781 5781 5781 5784 5785 5789 5792 5797 5802 5808 5813 5820 5825 5829 5836 5841 5846 5850 5857 5864 5870 5876 5880 5885 5888 5887 5891 5884 5892 5897 5893 5896 5897 5902 5903 5905 5908 5910
5787 5786 5784 5781 5779 5778 5777 5777 5776 5775 5776 5778 5782 5785 5789 5794 5800 5805 5813 5819 5825 5832 5835 5841 5850 5854 5858 5864 5870 5876 5882 5887 5889 5886 5889 5885 5890 5892 5893 5897 5899 5900 5901 5904 5909
5782 5779 5777 5775 5773 5770 5770 5769 5769 5768 5771 5774 5773 5777 5780 5785 5791 5796 5803 5812 5818 5825 5830 5836 5845 5848 5853 5858 5866 5872 5881 5874 5880 5879 5886 5888 5890 5889 5890 5894 5897 5897 5900 5901 5906
5776 5775 5771 5767 5764 5762 5761 5759 5760 5761 5763 5761 5763 5766 5770 5776 5783 5789 5797 5802 5808 5818 5824 5831 5837 5841 5846 5853 5862 5869 5878 5873 5881 5881 5888 5890 5895 5891 5891 5893 5894 5895 5896 5897 5903
5771 5769 5765 5762 5758 5755 5753 5753 5753 5756 5759 5759 5757 5760 5765 5768 5776 5780 5787 5794 5803 5810 5816 5825 5831 5835 5841 5847 5856 5865 5870 5873 5875 5881 5885 5890 5891 5886 5886 5890 5882 5889 5893 5890 5894
5768 5764 5760 5756 5754 5750 5749 5748 5749 5749 5750 5754 5757 5756 5757 5760 5768 5774 5779 5785 5794 5803 5810 5818 5822 5830 5834 5840 5848 5857 5861 5869 5872 5875 5879 5886 5887 5877 5879 5881 5880 5886 5888 5876 5862
5762 5759 5756 5751 5748 5746 5745 5744 5744 5745 5746 5749 5752 5755 5754 5760 5766 5773 5773 5780 5789 5798 5807 5812 5817 5823 5826 5835 5845 5850 5857 5866 5868 5872 5878 5882 5883 5869 5873 5879 5882 5883 5885 5891 5890
5759 5754 5751 5746 5745 5742 5741 5741 5740 5742 5744 5746 5750 5751 5755 5758 5768 5771 5773 5777 5787 5794 5805 5811 5814 5821 5824 5831 5841 5846 5849 5863 5871 5873 5877 5879 5871 5866 5869 5880 5885 5889 5890 5889 5893
5754 5751 5749 5743 5742 5739 5739 5741 5739 5737 5739 5742 5745 5747 5745 5751 5756 5765 5772 5776 5779 5788 5792 5805 5812 5814 5822 5828 5833 5835 5849 5854 5859 5866 5875 5873 5872 5868 5874 5881 5884 5887 5886 5889 5893
5752 5747 5745 5744 5742 5738 5734 5735 5736 5736 5737 5737 5740 5743 5742 5747 5744 5757 5754 5767 5774 5780 5788 5795 5799 5806 5812 5818 5823 5832 5832 5844 5856 5863 5869 5865 5861 5857 5863 5878 5882 5883 5882 5884 5887
5750 5745 5744 5744 5744 5739 5737 5734 5737 5736 5734 5733 5736 5741 5741 5738 5742 5745 5748 5758 5757 5774 5782 5791 5795 5801 5805 5813 5822 5828 5834 5840 5846 5853 5860 5854 5849 5853 5862 5870 5872 5875 5877 5879 5883
5749 5746 5743 5741 5739 5735 5734 5738 5737 5736 5732 5731 5733 5737 5740 5743 5742 5744 5749 5754 5760 5769 5773 5781 5788 5797 5802 5808 5811 5816 5825 5836 5845 5850 5853 5849 5847 5849 5856 5862 5866 5868 5872 5873 5877
5748 5746 5744 5741 5739 5738 5738 5737 5737 5735 5734 5735 5736 5738 5742 5743 5744 5748 5751 5754 5757 5766 5776 5783 5787 5790 5796 5801 5805 5811 5819 5826 5833 5841 5848 5833 5837 5841 5849 5854 5859 5863 5867 5869 5871
5748 5745 5742 5741 5739 5738 5737 5736 5735 5735 5735 5736 5736 5736 5740 5742 5746 5748 5751 5755 5757 5764 5773 5778 5779 5783 5788 5794 5800 5806 5815 5819 5826 5835 5824 5825 5829 5833 5839 5847 5852 5858 5861 5865 5868
5748 5745 5742 5740 5738 5737 5736 5735 5734 5733 5733 5734 5736 5738 5737 5741 5742 5746 5750 5752 5755 5761 5767 5770 5775 5778 5782 5789 5793 5801 5809 5813 5821 5828 5816 5823 5824 5824 5833 5840 5845 5852 5857 5860 5862
5748 5746 5742 5741 5739 5738 5736 5735 5734 5733 5733 5733 5734 5736 5737 5738 5743 5744 5746 5748 5752 5757 5762 5766 5768 5777 5782 5786 5791 5796 5798 5803 5809 5815 5812 5819 5821 5825 5829 5833 5839 5846 5851 5855 5857